Find Tongxin Jishu Shiyan 19

NORAD ID: 63924 Int'l Des: 2025-097 Owner: SAST Country: CN operational
HEOCIRCULARGSO

現在のビュー

3D地球を読み込み中...

Tongxin Jishu Shiyan 19について

説明を読み込み中...

次回通過

Passes for default location (London). Set your location on the main map for personalized predictions.

高度履歴

Loading altitude history...

軌道要素

1 63924U 25097A 26150.74504771 -.00000264 00000-0 00000+0 0 9998
2 63924 3.3156 317.1673 0001552 236.6410 103.9662 1.00272936 3962
Epoch: May 30, 2026 • Age: 14 hours

現在のステータス

高度 35781.1 km
速度 3.08 km/s
衛星直下点 -0.85°S, 141.26°E
打ち上げ日 May 12, 2025
運用期間 1 years
タイプ other

技術仕様

分類 Payload
質量 3000.00 kg
乾燥質量 2500.00 kg
総質量 3000.00 kg
長さ 5.00 m
直径 2.50 m
スパン 30.00 m
形状 Box + 2 Pan
製造者 SAST
バスタイプ FY-4
フェーズステータス In Orbit
所有者/国 SAST/CN

Most Searched